Location: *
(34.6903°N, 135.5184°E)
Time: 01:39:33
(UTC+00:00)

Cosmos 773 Rocket - Pass Details

Date: 22 September 2019
Orbit: 746 x 776 km, 74.1° (Epoch: 20 October)

Event Time Altitude Azimuth Distance (km) Brightness Sun altitude
Exits shadow 18:44:22 45° 328° (NNW) 1,012 4.5 -25.4°
Drops below altitude 10° 18:48:23 10° 7° (N) 2,272 6.7 -24.6°
Sets 18:50:49 0° 12° (NNE) 3,197 7.6 -24.1°
